Regional Weather Roundup
Issued by NWS Memphis, TN

Home | Current Version | Previous Version | Text Only | Print | Product List | Glossary On
Versions: 1 2 3 4 5 6 7 8 9 10 11 12 13 14 15 16 17 18 19 20 21 22 23 24 25 26 27 28 29 30 31 32 33 34 35 36 37 38 39 40 41 42 43 44 45 46 47 48 49 50
000
ASUS44 KMEG 251410
RWRMEG
MEMPHIS CWA HOURLY WEATHER ROUNDUP
NATIONAL WEATHER SERVICE MEMPHIS TN
900 AM CDT TUE APR 25 2017

...WEST TENNESSEE...

CITY           SKY/WX    TMP DP  RH WIND       PRES   REMARKS
MEMPHIS INTL   MOSUNNY   66  55  67 S10       29.76S
NWS MEMPHIS      N/A     66 N/A N/A MISG        N/A
JACKSON        SUNNY     63  57  81 S6        29.78R
SOMERVILLE     SUNNY     63  55  77 CALM      29.77S
BOLIVAR        SUNNY     63  57  82 S6        29.78R
LEXINGTON      SUNNY     59  55  88 SW5       29.79S
SAVANNAH       SUNNY     59  57  94 S3        29.78S
DYERSBURG      SUNNY     64  57  78 S5        29.77S
UNION CITY     SUNNY     63  57  82 VRB6      29.76S HAZE
PARIS          SUNNY     63  55  77 S5        29.78S
HUNTINGDON     SUNNY     63  57  82 S6        29.78S


...EASTERN ARKANSAS...

CITY           SKY/WX    TMP DP  RH WIND       PRES   REMARKS
JONESBORO      SUNNY     62  56  80 S10       29.73S
WEST MEMPHIS   SUNNY     63  58  83 S10       29.75S
BATESVILLE     SUNNY    N/A N/A N/A S12       29.70S
NEWPORT        SUNNY     65  53  65 MISG      29.72S
WALNUT RIDGE   SUNNY     64  52  63 S14       29.71S
BLYTHEVILLE    SUNNY     64  58  80 S9        29.75F
NW BLYTHEVILLE SUNNY     66  57  72 S9        29.74F
SEARCY         SUNNY     63  56  78 S7        29.73S
STUTTGART      SUNNY     64  46  52 S12       29.74S
PINE BLUFF     SUNNY     64  54  69 S10       29.73S
MONTICELLO     SUNNY     66  54  65 SW7       29.76R


...NORTH MISSISSIPPI...

CITY           SKY/WX    TMP DP  RH WIND       PRES   REMARKS
TUPELO         SUNNY     60  55  83 SE5       29.80S
OXFORD         SUNNY     63  54  72 S5        29.80S
OLIVE BRANCH   SUNNY    N/A N/A N/A S9        29.76S
TUNICA         SUNNY     63  55  77 S8        29.77F
CORINTH        SUNNY     61  55  82 S6        29.79R
GREENWOOD      SUNNY     65  55  70 SW12      29.79S
COLUMBUS       SUNNY     62  57  83 SW5       29.80F
STARKVILLE     SUNNY     61  55  82 S5        29.82F
GOLDEN TRIANGL SUNNY     63  54  72 S9        29.78S


...SOUTHEAST MISSOURI...

CITY           SKY/WX    TMP DP  RH WIND       PRES   REMARKS
KENNETT        SUNNY     64  57  77 S9        29.73S HAZE
MALDEN         SUNNY     63  57  82 S12       29.74S
WEST PLAINS    SUNNY     61  47  59 S12       29.68S
POPLAR BLUFF   MOSUNNY   62  58  86 S7        29.71F
CAPE GIRARDEAU SUNNY     63  56  78 S8        29.73S


...NORTHWEST ALABAMA...

CITY           SKY/WX    TMP DP  RH WIND       PRES   REMARKS
MUSCLE SHOALS  MOSUNNY   58  55  90 VRB3      29.81F


...MIDDLE TENNESSEE...

CITY           SKY/WX    TMP DP  RH WIND       PRES   REMARKS
NASHVILLE      MOSUNNY   61  55  81 CALM      29.81S
CLARKSVILLE    PTSUNNY   56  54  93 CALM      29.79S FOG
COLUMBIA       SUNNY    N/A N/A N/A CALM      29.79S


...WESTERN KENTUCKY...

CITY           SKY/WX    TMP DP  RH WIND       PRES   REMARKS
PADUCAH        SUNNY     64  55  72 S6        29.75S
FORT CAMPBELL  SUNNY     62  57  83 SW3       29.79S


...CENTRAL ARKANSAS...

CITY           SKY/WX    TMP DP  RH WIND       PRES   REMARKS
LITTLE ROCK    MOSUNNY   64  53  67 S8        29.71S


SKY/WX REPORTED AS FAIR MEANS FEW OR NO CLOUDS BELOW
12 THOUSAND FEET.





USA.gov is the U.S. government's official web portal to all federal, state and local government web resources and services.